EXOCUBE (CP10) (40380 NORAD) Tracking and Keplerian Element Data

This shows tracking and keplerian element data for the satellite.

Feedback or suggestion? Click here.




ElementValue
Catalog40380
NameEXOCUBE (CP10)
Epoch Orbit23286
Epoch Day113.448101
Epoch Year2019
RAAN73.6282
Inclination99.11
Eccentricity0.0139665
Argument of Perigee305.8033
Mean Anonmoly53.0278
Mean Motion15.13369524
Decay Rate1.425E-05
L11 40380U 15003E 19113.44810100 .00001425 00000-0 67928-4 0 9995
L22 40380 99.1100 73.6282 0139665 305.8033 53.0278 15.13369524232862

Live tracking and technical data element details for EXOCUBE (CP10) (NORAD 40380). EXOCUBE (CP10) can be tracked NOW for your location showing map with azimuth and elevation plus other details from your city location.

Track the satellite on the map from your city or location and see movement details for azimuth, elevation, latitude, longitude, range, height, and movement on the map or in text.







IsCatalogInMostPopularTable: catalog: 40380, numindb: 179
Update: records affected: 1



GetName: 40380 EXOCUBE (CP10)

Hit Count: updated at: Thu, 25 Apr 2019 19:47:43 GMT